Total_Precipitation_Accumulation
0.00 0.00 0.00 0.00 0.00 0.00 0.01 0.02 0.04 0.12 0.19 0.17 0.22 0.27 0.30 0.38 0.47 0.97 0.61 0.23 0.12 0.05 0.03 0.02 0.03 0.05 0.07 0.07 0.09 0.11 0.12 0.11 0.11 0.10 0.10 0.09 0.09 0.09 0.09 0.09 0.12 0.16 0.19 0.18 0.16 0.16 0.16 0.13 0.10
0.00 0.00 0.00 0.00 0.00 0.00 0.01 0.02 0.05 0.12 0.16 0.15 0.19 0.24 0.24 0.25 0.23 0.20 0.26 0.19 0.12 0.08 0.05 0.03 0.03 0.04 0.05 0.06 0.07 0.11 0.12 0.11 0.10 0.09 0.09 0.08 0.09 0.09 0.10 0.12 0.17 0.24 0.28 0.29 0.23 0.19 0.17 0.15 0.10
0.00 0.00 0.00 0.00 0.00 0.00 0.02 0.04 0.07 0.09 0.12 0.18 0.22 0.34 0.33 0.23 0.22 0.19 0.21 0.16 0.14 0.09 0.07 0.04 0.04 0.04 0.04 0.05 0.06 0.10 0.12 0.11 0.09 0.10 0.10 0.09 0.10 0.11 0.14 0.18 0.22 0.27 0.30 0.29 0.25 0.23 0.21 0.15 0.10
0.00 0.00 0.00 0.00 0.00 0.00 0.02 0.06 0.09 0.09 0.10 0.15 0.17 0.34 0.37 0.26 0.28 0.27 0.23 0.20 0.16 0.12 0.10 0.07 0.06 0.07 0.06 0.05 0.06 0.09 0.11 0.13 0.13 0.15 0.14 0.14 0.14 0.14 0.19 0.26 0.30 0.29 0.29 0.29 0.30 0.29 0.24 0.16 0.10
0.00 0.00 0.00 0.00 0.00 0.00 0.01 0.04 0.07 0.08 0.07 0.10 0.18 0.34 0.48 0.45 0.44 0.44 0.37 0.32 0.26 0.19 0.15 0.13 0.11 0.10 0.10 0.08 0.08 0.11 0.15 0.18 0.22 0.25 0.23 0.19 0.18 0.19 0.24 0.31 0.33 0.32 0.36 0.35 0.33 0.26 0.20 0.13 0.11
0.00 0.00 0.00 0.00 0.00 0.00 0.01 0.03 0.05 0.07 0.07 0.11 0.23 0.47 0.76 0.87 0.85 0.78 0.71 0.47 0.37 0.25 0.26 0.21 0.16 0.15 0.15 0.14 0.14 0.17 0.22 0.26 0.30 0.30 0.25 0.22 0.20 0.21 0.25 0.28 0.28 0.31 0.32 0.27 0.19 0.14 0.11 0.11 0.12
0.00 0.00 0.00 0.00 0.00 0.01 0.01 0.04 0.06 0.08 0.10 0.14 0.27 0.49 0.74 1.01 1.10 1.08 0.96 0.71 0.59 0.46 0.49 0.39 0.26 0.23 0.21 0.24 0.26 0.24 0.23 0.25 0.29 0.30 0.25 0.20 0.19 0.18 0.19 0.20 0.21 0.22 0.18 0.15 0.12 0.10 0.09 0.08 0.08
0.00 0.00 0.00 0.00 0.01 0.01 0.02 0.05 0.08 0.12 0.15 0.18 0.35 0.58 0.95 1.05 0.94 1.05 1.00 0.86 0.91 0.90 0.83 0.50 0.29 0.27 0.28 0.28 0.33 0.33 0.29 0.28 0.28 0.25 0.23 0.19 0.17 0.18 0.18 0.17 0.17 0.18 0.17 0.15 0.12 0.09 0.08 0.07 0.07
0.00 0.00 0.00 0.00 0.01 0.01 0.02 0.04 0.08 0.07 0.10 0.22 0.34 0.49 0.77 0.87 0.85 1.05 1.07 1.15 1.18 1.05 0.88 0.68 0.44 0.33 0.33 0.34 0.32 0.33 0.33 0.32 0.31 0.28 0.25 0.22 0.23 0.26 0.26 0.21 0.21 0.20 0.19 0.15 0.14 0.12 0.10 0.08 0.08
0.00 0.00 0.00 0.00 0.00 0.01 0.02 0.03 0.06 0.07 0.08 0.19 0.28 0.39 0.64 0.78 0.96 1.10 1.20 1.43 1.24 1.13 0.98 0.85 0.72 0.57 0.52 0.44 0.47 0.46 0.43 0.42 0.37 0.43 0.36 0.38 0.53 0.59 0.52 0.54 0.39 0.31 0.25 0.22 0.22 0.18 0.14 0.13 0.13
0.00 0.00 0.00 0.00 0.00 0.00 0.01 0.02 0.05 0.08 0.17 0.45 0.48 0.53 0.62 0.76 0.96 1.16 1.38 1.64 1.59 1.42 1.17 1.06 1.01 1.00 0.93 0.90 0.81 0.69 0.68 0.70 0.62 0.69 0.61 0.70 0.80 0.75 0.74 0.84 0.67 0.54 0.43 0.42 0.45 0.31 0.25 0.23 0.27
0.00 0.00 0.00 0.00 0.00 0.00 0.01 0.03 0.05 0.09 0.25 0.49 0.55 0.62 0.75 0.80 0.89 1.11 1.38 1.60 1.75 1.67 1.49 1.49 1.23 1.10 1.15 1.35 1.32 1.00 0.91 0.86 0.79 0.92 0.87 0.99 1.11 1.08 1.12 1.12 0.95 0.87 0.80 0.78 0.70 0.63 0.54 0.44 0.41
0.00 0.00 0.00 0.00 0.00 0.00 0.01 0.06 0.07 0.08 0.12 0.27 0.38 0.52 0.72 0.69 0.81 0.98 1.37 1.86 2.13 2.11 1.94 1.84 1.61 1.40 1.39 1.66 1.65 1.22 1.10 1.18 1.34 1.42 1.23 1.23 1.21 1.21 1.30 1.26 1.21 1.15 1.20 1.14 0.98 0.84 0.87 0.83 0.70
0.00 0.00 0.00 0.00 0.00 0.00 0.01 0.03 0.04 0.07 0.10 0.19 0.29 0.40 0.66 0.83 1.07 1.33 1.60 2.06 2.36 2.42 2.26 2.14 1.94 1.83 1.76 1.80 1.77 1.74 1.53 1.56 1.71 1.74 1.60 1.45 1.47 1.60 1.62 1.63 1.57 1.44 1.46 1.42 1.29 1.19 1.18 1.08 1.01
0.00 0.00 0.00 0.00 0.00 0.01 0.01 0.03 0.06 0.06 0.11 0.17 0.24 0.36 0.55 0.79 1.07 1.35 1.78 2.05 2.13 2.12 2.05 2.10 1.99 2.02 2.04 1.97 1.90 1.97 2.04 2.08 2.17 2.11 1.93 1.75 1.74 2.02 1.99 1.97 1.84 1.73 1.71 1.76 1.67 1.55 1.48 1.29 1.16
0.00 0.00 0.00 0.00 0.00 0.00 0.01 0.07 0.16 0.12 0.12 0.12 0.20 0.32 0.39 0.56 0.85 1.14 1.45 1.68 1.80 2.15 2.22 2.24 2.23 2.17 2.17 2.24 2.24 2.23 2.26 2.51 2.60 2.59 2.52 2.26 2.13 2.25 2.32 2.33 2.20 2.04 1.94 2.05 2.10 1.97 1.83 1.67 1.58
0.00 0.01 0.01 0.01 0.01 0.01 0.01 0.07 0.15 0.15 0.15 0.18 0.30 0.42 0.41 0.52 0.76 1.03 1.33 1.60 1.83 2.03 2.30 2.30 2.27 2.37 2.38 2.46 2.42 2.55 2.69 2.75 2.77 2.80 2.84 2.75 2.63 2.68 2.69 2.62 2.59 2.51 2.50 2.48 2.30 2.27 2.11 2.09 2.00
0.01 0.01 0.01 0.01 0.01 0.02 0.03 0.09 0.16 0.18 0.16 0.28 0.42 0.47 0.51 0.57 0.64 0.82 1.15 1.68 1.97 2.02 2.08 2.27 2.36 2.49 2.54 2.75 2.81 2.89 2.97 3.07 3.24 3.46 3.55 3.33 3.25 3.16 3.22 3.15 3.04 2.97 2.91 2.73 2.64 2.57 2.38 2.22 2.10
0.01 0.01 0.01 0.02 0.02 0.02 0.05 0.10 0.16 0.21 0.23 0.32 0.40 0.41 0.38 0.49 0.63 0.82 1.15 1.63 2.19 2.21 2.15 2.33 2.58 2.70 2.82 3.10 3.21 3.36 3.65 3.81 3.94 4.07 4.01 3.94 3.79 3.81 3.78 3.63 3.37 3.21 3.18 3.06 2.97 2.77 2.58 2.34 2.15
0.00 0.00 0.01 0.04 0.04 0.04 0.08 0.15 0.21 0.25 0.27 0.35 0.43 0.48 0.49 0.57 0.80 1.05 1.35 1.88 2.36 2.56 2.63 2.66 2.89 3.18 3.43 3.65 3.98 4.31 4.62 4.83 4.94 4.98 4.55 4.32 4.20 4.13 4.06 4.03 3.94 3.69 3.50 3.28 3.03 2.90 2.74 2.39 2.16
0.01 0.01 0.02 0.06 0.05 0.06 0.13 0.29 0.38 0.38 0.38 0.49 0.66 0.75 0.85 0.92 1.14 1.32 1.56 1.98 2.36 2.55 2.69 2.81 3.04 3.49 3.99 4.36 4.76 5.19 5.44 5.50 5.28 5.01 4.90 4.73 4.57 4.45 4.28 4.10 3.85 3.65 3.50 3.35 3.13 2.90 2.75 2.48 2.24
0.01 0.01 0.01 0.02 0.04 0.09 0.14 0.35 0.64 0.61 0.59 0.71 0.85 0.81 0.87 1.07 1.30 1.52 1.76 2.02 2.34 2.52 2.64 2.94 3.45 4.07 4.61 5.05 5.56 6.09 6.26 6.09 5.78 5.35 4.98 4.71 4.44 4.10 3.83 3.67 3.55 3.36 3.06 2.82 2.69 2.56 2.33 2.15 2.03
0.01 0.01 0.01 0.02 0.02 0.07 0.11 0.29 0.77 0.89 0.88 0.98 1.13 0.99 0.92 0.94 1.08 1.35 1.59 1.79 2.09 2.24 2.48 2.87 3.47 4.17 4.87 5.65 6.30 6.71 6.66 6.35 5.96 5.32 4.74 4.23 3.84 3.53 3.26 3.11 2.91 2.67 2.33 1.99 1.89 1.93 1.94 1.87 1.78
0.01 0.01 0.01 0.02 0.03 0.08 0.11 0.28 0.80 1.16 1.29 1.36 1.21 1.01 0.88 0.87 0.88 0.93 1.07 1.29 1.53 1.87 2.22 2.63 3.24 3.97 4.65 5.30 5.81 5.95 5.89 5.74 5.28 4.61 4.03 3.65 3.32 2.97 2.57 2.26 1.96 1.74 1.59 1.40 1.34 1.35 1.42 1.56 1.60
0.01 0.02 0.10 0.15 0.19 0.18 0.14 0.33 0.81 1.16 1.34 1.25 1.05 0.93 0.79 0.73 0.72 0.71 0.76 0.96 1.25 1.50 1.86 2.30 2.74 3.32 3.78 4.17 4.57 4.69 4.70 4.56 4.32 3.90 3.50 3.11 2.64 2.27 1.94 1.63 1.44 1.31 1.23 1.16 1.09 1.05 1.07 1.17 1.29
0.02 0.02 0.15 0.28 0.27 0.30 0.34 0.61 1.05 1.13 1.15 1.06 0.91 0.81 0.70 0.65 0.66 0.71 0.79 0.91 1.14 1.36 1.60 1.80 2.09 2.45 2.61 2.68 2.90 3.09 3.10 3.12 3.06 2.83 2.60 2.35 2.01 1.67 1.39 1.16 0.99 0.89 0.88 0.87 0.86 0.87 0.90 0.94 1.01
0.02 0.03 0.07 0.12 0.14 0.32 0.60 0.90 1.32 1.16 1.01 0.97 0.96 0.79 0.68 0.65 0.65 0.69 0.74 0.79 0.89 1.03 1.13 1.22 1.35 1.53 1.60 1.68 1.72 1.81 1.88 1.90 1.85 1.75 1.59 1.42 1.25 1.05 0.90 0.76 0.68 0.64 0.62 0.61 0.59 0.61 0.67 0.75 0.81
0.05 0.06 0.08 0.14 0.29 0.49 0.72 1.10 1.64 1.70 1.33 1.06 0.89 0.71 0.59 0.59 0.61 0.63 0.65 0.67 0.72 0.75 0.82 0.87 0.91 1.01 1.10 1.17 1.17 1.19 1.21 1.18 1.09 1.02 0.98 0.89 0.79 0.70 0.63 0.54 0.48 0.45 0.43 0.40 0.39 0.41 0.43 0.48 0.57
0.09 0.10 0.13 0.18 0.22 0.47 0.83 1.44 1.71 1.95 1.83 1.35 1.00 0.84 0.73 0.65 0.61 0.64 0.65 0.57 0.55 0.56 0.60 0.65 0.70 0.74 0.79 0.82 0.85 0.87 0.84 0.80 0.77 0.73 0.69 0.64 0.54 0.46 0.41 0.35 0.33 0.31 0.30 0.30 0.32 0.36 0.41 0.43 0.45
0.10 0.13 0.19 0.38 0.40 0.41 0.81 1.65 1.81 2.07 2.09 1.73 1.39 1.20 1.11 0.87 0.75 0.73 0.69 0.59 0.54 0.55 0.54 0.56 0.58 0.61 0.66 0.62 0.62 0.67 0.62 0.56 0.54 0.52 0.45 0.41 0.40 0.35 0.29 0.25 0.25 0.25 0.26 0.25 0.26 0.29 0.34 0.40 0.40